* Astronomy

Members Login
Post Info TOPIC: Asteroid 2010 GW64


L

Posts: 131433
Date:
Asteroid 2010 GW64
Permalink  
 


Orbital elements:
2010 GW64
Epoch 2010 Mar. 25.0 TT = JDT 2455280.5 MPC
M 359.98005 (2000.0) P Q
n 0.00105585 Peri. 151.62582 -0.56744604 -0.04912832
a 95.5139444 Node 301.50828 +0.44547265 +0.82120184
e 0.9610967 Incl. 105.40252 +0.69250206 -0.56851907
P 933 H 14.7 G 0.15
From 30 observations 2010 Apr. 6-14.

MPEC 2010 - G109


Asteroid 2010 GW64 was discovered by the WISE Satellite on the 6th April 2010.

__________________
Page 1 of 1  sorted by
Quick Reply

Please log in to post quick replies.



Create your own FREE Forum
Report Abuse
Powered by ActiveBoard